User: anonymous
Location: Durham
(54.7770°N, 1.5720°W)
Time: 12:51:15
(UTC+01:00)
Language:

ISS - Orbit

View from above orbital plane
View from above orbital plane
View from above satellite
View from above satellite

Ground track
Ground track

The orbit data is extracted from the following two-line orbital elements,

1 25544U 98067A   14213.42725943  .00004111  00000-0  78617-4 0  8110
2 25544 051.6466 235.3410 0006374 318.2505 182.0694 15.50497703898345
Epoch (UTC): 01 August 2014 10:15:15
Eccentricity: 0.0006374
inclination: 51.6466°
perigee height: 411 km
apogee height: 419 km
right ascension of ascending node: 235.3410°
argument of perigee: 318.2505°
revolutions per day: 15.50497703
mean anomaly at epoch: 182.0694°
orbit number at epoch: 89834

The dashed part of the orbit path shows where the satellite is in the earth's shadow,  

DLR